Погода в Границе

Чехия     49°33′06″N   17°44′07″E
темп.,
°C
ветер,
м/с
пор.,
м/с
влажн.,
%
обл.,
%
осадки,
мм/ч
давл.,
гПа
погр.,
м
17 апреля, сб
сб1723:00+3ю1197100 0.1 1021190
02:00+2зюз2396100 0.1 1021339
05:00+2юз1299100 0.1 1020367
08:00+3ююв0099100 0.3 1020461
11:00+3юв0197100 0.2 1020472
14:00+5ссв118776 0.3 1020430
17:00+5св448895 0.1 1019512
20:00+3св3597100 0.1 1020357
18 апреля, вс
вс1823:00+3св2599100 0.0 1020334
02:00+3св2599100 0.0 1020378
05:00+3св3797100 0.0 1019445
08:00+3св4795100 0.0 1019510
11:00+6св5780100 0.0 1018720
14:00+7св6778100 0.1 1018878
17:00+6св5882100 0.1 1018773
20:00+5св4988100 0.1 1018428
19 апреля, пн
пн1923:00+4св3593100 0.0 1018135
02:00+3св3596100 0.0 1017138
05:00+3св3698100 0.0 1017180
08:00+5св3890100 0.1 1016391
11:00+9св6878100 0.0 1014827
14:00+11св6772100 0.3 10131189
17:00+9св5881100 1.1 1013753
20:00+7св3890100 1.6 1013360
20 апреля, вт
вт2023:00+7св369497 0.6 1013304
02:00+6ссв2595100 0.6 1013366
05:00+5св3596100 0.3 1013309
08:00+6св368975 0.6 1014441
11:00+10св46715 0.0 1013941
14:00+11св446094 0.4 10121311
17:00+12ссв445637 0.1 10111363
20:00+7ссв22779 0.2 101215
21 апреля, ср
ср2123:00+5всв11846 0.0 101310
02:00+4ююв118522 0.0 101310
05:00+4ююз118785 0.0 101313
08:00+7юз238075 0.1 1013212
11:00+11юз456914 0.1 1012982
14:00+14зюз565747 0.7 10111477
17:00+13зюз566010 0.9 10101349
20:00+8ююз22793 1.9 101111